Tracking 19709 objects as of 20-Jun-2019
HD Live streaming from Space Station
objects crossing your sky now

SL-8 R/B

Track SL-8 R/B now!
10-day predictions


NORAD ID: 7009
Int'l Code: 1973-109B
Perigee: 967.9 km
Apogee: 996.7 km
Inclination: 82.9 °
Period: 104.6 minutes
Semi major axis: 7353 km
RCS: 4.4533 m2 (large)
Launch date: December 29, 1973
Source: Commonwealth of Independent States (former USSR) (CIS)
Launch site: PLESETSK MISSILE AND SPACE COMPLEX (PKMTR)

Note: This is a ROCKET BODY
aabbcc
Your satellite tracking list
Your tracking list is empty




NASA's NSSDC Master Catalog

Two Line Element Set (TLE):
1  7009U 73109B   19170.85867927 -.00000024  00000-0 -39342-4 0  9999
2  7009  82.9493 118.8838 0019549 353.0092  65.6506 13.76833855284124
Source of the keplerian elements: AFSPC